Regional Weather Roundup
Issued by NWS

Home | Current Version | Previous Version | Text Only | Print | Product List | Glossary Off
Versions: 1 2 3 4 5 6 7 8 9 10 11 12 13 14 15 16 17 18 19 20 21 22 23 24 25 26 27 28 29 30 31 32 33 34 35 36 37 38 39 40 41 42 43 44 45 46 47 48 49 50

000
ASUS43 KOAX 282310
RWRNE

WEATHER ROUNDUP FOR NEBRASKA
NATIONAL WEATHER SERVICE OMAHA NE
600 PM CDT MON JUL 28 2014

NOTES: SATELLITE DATA IS BEING USED TO AUGMENT CLOUD COVER ABOVE
       12000 FEET.
       "FAIR" INDICATES FEW OR NO CLOUDS BELOW 12,000 FEET WITH NO
       SIGNIFICANT WEATHER AND/OR OBSTRUCTIONS TO VISIBILITY.

  * THESE STATIONS DO NOT REPORT WEATHER SUCH AS RAIN...SNOW OR FOG.

NEZ001>004-019>022-054>056-290000-
NEBRASKA PANHANDLE

CITY           SKY/WX    TMP DP  RH WIND       PRES   REMARKS
SCOTTSBLUFF    SUNNY     89  59  36 E13       30.21F
ALLIANCE       MOSUNNY   88  53  30 SE9       30.23F
CHADRON        SUNNY     88  56  33 E13       30.19F
KIMBALL        MOSUNNY   84  52  33 SE7       30.24F
SIDNEY         MOSUNNY   85  56  37 SE12G21   30.24F
$$

NEZ057>060-069>072-079>082-290000-
SOUTHWEST NEBRASKA

CITY           SKY/WX    TMP DP  RH WIND       PRES   REMARKS
NORTH PLATTE   MOSUNNY   82  58  43 SE12      30.22F
IMPERIAL       CLOUDY    89  54  30 SE9       30.20F
LEXINGTON      SUNNY     82  56  41 E7        30.24F
MCCOOK         SUNNY     89  56  32 E7        30.19F
OGALLALA       SUNNY     85  57  38 E8        30.21F
$$

NEZ005>010-023>029-035>040-094-290000-
NORTH CENTRAL NEBRASKA

CITY           SKY/WX    TMP DP  RH WIND       PRES   REMARKS
VALENTINE      SUNNY     82  52  35 NE7       30.24F
AINSWORTH      SUNNY     77  50  38 SE6       30.25F
BROKEN BOW     CLOUDY    79  57  46 NE7       30.25F
O`NEILL        MOSUNNY   78  47  33 N7        30.25F
ORD            SUNNY     79  53  40 VRB3      30.23F
THEDFORD       CLOUDY    80  56  44 E7        30.26F
$$

NEZ041-046>049-061>064-073>077-083>087-290000-
SOUTH CENTRAL NEBRASKA

CITY           SKY/WX    TMP DP  RH WIND       PRES   REMARKS
GRAND ISLAND   SUNNY     78  56  46 NE6       30.24F
AURORA         MOSUNNY   77  57  49 NE6       30.24F
HASTINGS       MOSUNNY   78  55  44 VRB3      30.25F
HEBRON         SUNNY     78  53  41 N5        30.23F
HOLDREGE       SUNNY     80  57  45 E8        30.24F
KEARNEY *      MOSUNNY   81  57  44 NE8       30.25F
YORK           SUNNY     75  55  50 N9G17     30.24F
$$

NEZ011>018-030>034-042>045-290000-
NORTHEAST NEBRASKA

CITY           SKY/WX    TMP DP  RH WIND       PRES   REMARKS
NORFOLK        MOSUNNY   76  51  41 N10       30.23F
ALBION         SUNNY     74  53  49 N7        30.25F
BLAIR          PTSUNNY   76  53  45 NW10      30.20F
COLUMBUS *     MOSUNNY   75  54  46 N9        30.24F
FREMONT        MOSUNNY   78  52  39 NW9       30.21F
TEKAMAH        SUNNY     79  54  41 NW12      30.19F
WAYNE          PTSUNNY   76  56  50 NW10      30.23F
$$

NEZ050>053-065>068-078-088>093-290000-
SOUTHEAST NEBRASKA

CITY           SKY/WX    TMP DP  RH WIND       PRES   REMARKS
LINCOLN        MOSUNNY   80  52  37 N13       30.22F
OMAHA EPPLEY   MOSUNNY   77  54  44 NW10      30.19F
BEATRICE       SUNNY     77  57  49 N12       30.21F
FALLS CITY     SUNNY     77  55  46 N6        30.18F
NEBRASKA CITY  MOSUNNY   76  52  42 N3        30.19F
PLATTSMOUTH    MOSUNNY   76  53  44 NW6       30.20S
$$

NEZ044-045-051>053-067-290000-
OMAHA AREA

CITY           SKY/WX    TMP DP  RH WIND       PRES   REMARKS
OMAHA EPPLEY   MOSUNNY   77  54  44 NW10      30.19F
BLAIR          PTSUNNY   76  53  45 NW10      30.20F
FREMONT        MOSUNNY   78  52  39 NW9       30.21F
MILLARD        MOSUNNY   77  55  46 N6        30.19F
OFFUTT AFB     MOSUNNY   77  57  49 N9        30.18F
PLATTSMOUTH    MOSUNNY   76  53  44 NW6       30.20S
WAHOO          FAIR      78  53  41 N8        30.21F
$$



USA.gov is the U.S. government's official web portal to all federal, state and local government web resources and services.